Volver al catálogo

FLOCK 4Q 9

ActivoCienciaSSO
NORAD 58322·PAYLOAD·🇺🇸 United States

Lanzado Nov 11, 2023 desde Vandenberg Space Force Base

Loading…

Próximos Pases (próximas 24 horas)

TLE

ActualizadoSource: CelesTrak SupGP

Época: Sep 14, 2026, 18:45 UTC

1 58322C 23174BU  26257.78148148  .00022345  00000+0  34147-3 0  2574
2 58322  97.3818 348.7786 0006476 164.1311 264.0209 15.54386962    14

Sigue FLOCK 4Q 9 en tiempo real con AllMySat

Download on the App Store